Regional Weather Roundup
Issued by NWS Goodland, KS

Home | Current Version | Previous Version | Graphics & Text | Print | Product List | Glossary On
Versions: 1 2 3 4 5 6 7 8 9 10 11 12 13 14 15 16 17 18 19 20 21 22 23 24 25 26 27 28 29 30 31 32 33 34 35 36 37 38 39 40 41 42 43 44 45 46 47 48 49 50
000
ASUS43 KGLD 211008
RWRGLD

GOODLAND FORECAST AREA HOURLY WEATHER ROUNDUP
NATIONAL WEATHER SERVICE GOODLAND KS
300 AM MST SAT JAN 21 2017

...OFFICIAL OBSERVATIONS...

CITY           SKY/WX    TMP DP  RH WIND       PRES   REMARKS
GOODLAND KS    CLEAR     28  25  88 SW8       29.44S
HILL CITY KS   CLEAR     32  31  96 W8        29.46R
IMPERIAL NEB   CLEAR     31  27  85 W10       29.43R
MCCOOK NEB     CLEAR     30  30 100 W8        29.42F
AKRON CO       CLEAR     27  18  69 S3        29.40F
BURLINGTON CO  CLEAR     29  24  82 S5        29.43F
LIMON CO       CLOUDY    18  17  96 W5        29.40F FOG
$$

...UNOFFICIAL OBSERVATIONS...

CITY           SKY/WX    TMP DP  RH WIND       PRES   REMARKS
LENORA KS        N/A     34  32  92 W8          N/A
NORTON KS      CLEAR     34  28  80 SW7       29.43R
SHARON SPRINGS   N/A     28  27  95 CALM        N/A
TRENTON NEB      N/A     33  32  96 CALM        N/A
KIT CARSON CO    N/A     25  23  90 CALM        N/A
YUMA CO        FAIR      21  19  93 SW8       29.42F
$$



USA.gov is the U.S. government's official web portal to all federal, state and local government web resources and services.